IZ3VCM Weather Reports


Display with metric or nautical units.
time (UTC)temp
F
wind
direction
speed
MPH
gust
MPH
rain 1hr
in
rain 24hr
in
rain mn
in
humidity
%
barometer
mb
20260503180005 71 0 0.0 0.0 0.00 0.00 0.00 52 1015.2
20260503174503 72 135 1.0 1.0 0.00 0.00 0.00 50 1015.3
20260503173006 75 0 0.0 0.0 0.00 0.00 0.00 46 1015.2
20260503171503 80 0 0.0 0.0 0.00 0.00 0.00 39 1015.0
20260503081503 77 0 0.0 0.0 0.00 0.00 0.00 47 1019.0
20260503071503 74 0 0.0 0.0 0.00 0.00 0.00 53 1019.4
20260502221503 58 0 0.0 0.0 0.00 0.00 0.00 58 1020.3
20260502220005 59 0 0.0 0.0 0.00 0.00 0.00 58 1020.3
20260502214502 60 0 0.0 0.0 0.00 0.00 0.00 56 1020.3
20260502213005 61 0 0.0 0.0 0.00 0.00 0.00 54 1020.3
20260502211503 62 0 0.0 0.0 0.00 0.00 0.00 52 1020.4
20260502210005 63 0 0.0 0.0 0.00 0.00 0.00 52 1020.5
20260502204502 63 0 0.0 0.0 0.00 0.00 0.00 52 1020.5
20260502203005 63 0 0.0 0.0 0.00 0.00 0.00 52 1020.6
20260502201502 63 0 0.0 0.0 0.00 0.00 0.00 52 1020.6
20260502200005 63 0 0.0 0.0 0.00 0.00 0.00 52 1020.6
20260502194503 64 0 0.0 0.0 0.00 0.00 0.00 51 1020.5
20260502193005 65 0 0.0 0.0 0.00 0.00 0.00 49 1020.5
20260502191503 64 0 0.0 0.0 0.00 0.00 0.00 49 1020.5
20260502190005 65 0 0.0 0.0 0.00 0.00 0.00 49 1020.4
20260502184503 66 0 0.0 0.0 0.00 0.00 0.00 46 1020.3
20260502183005 67 0 0.0 0.0 0.00 0.00 0.00 44 1020.2
20260502181503 70 0 0.0 0.0 0.00 0.00 0.00 42 1020.1